EXPRESS-AMU1

Last updated on Thu Oct 23 2025 00:02:56 GMT+0000 (Coordinated Universal Time)

1 41191U 15082A 25295.48543019 .00000165 00000+0 00000+0 0 9999 2 41191 0.0181 263.0186 0002769 320.0536 18.9804 1.00273514 35884
UTC large
Height (km)
Speed (km/s)
/
Latitude / Longitude
Inclination (degrees)
Orbital Period (minutes)
Azimuth
Elevation
Range (km)
Doppler Factor

Next 0 passes for location: London (51.5072 / 0.1276)

Sorry there are no passes over London.